Погода в Келлоге

Россия / Красноярский край     62°29′14″N   86°16′42″E
темп.,
°C
ветер,
м/с
пор.,
м/с
влажн.,
%
обл.,
%
осадки,
мм/ч
давл.,
гПа
погр.,
м
17 апреля, сб
сб1701:00−14сз497772 0.1 1020846
04:00−16зсз26795 0.0 1020452
07:00−15зюз357884 0.0 1020369
10:00−11юз476192 0.0 1018737
13:00−7юз61062100 0.0 10151238
16:00−3юз61174100 0.3 10121576
19:00−3зюз51169100 0.8 10111502
22:00−7з3872100 0.1 1011377
18 апреля, вс
вс1801:00−9з2682100 0.1 1011338
04:00−10сз2480100 0.0 1010376
07:00−11с3585100 0.0 1010323
10:00−9ссв4677100 0.0 1009679
13:00−8ссв6867100 0.0 1010949
16:00−8с6863100 0.0 10111153
19:00−9с597142 0.0 1012926
22:00−12с5117834 0.0 1013658
19 апреля, пн
пн1901:00−14ссз5128698 0.0 1013564
04:00−16ссз51288100 0.0 1013491
07:00−17ссз5128332 0.0 1014499
10:00−13ссз510645 0.0 1013695
13:00−9ссз6958100 0.0 10141181
16:00−8сз61071100 0.1 10141472
19:00−9сз61282100 0.3 10151280
22:00−10сз51189100 0.4 1016978
20 апреля, вт
вт2001:00−12сз51283100 0.7 1017775
04:00−13сз41183100 0.0 1018658
07:00−13зсз4118377 0.0 1019547
10:00−9сз476772 0.0 1019749
13:00−5сз455799 0.0 10181159
16:00−3сз3452100 0.0 10181457
19:00−3с236195 0.0 1019638
22:00−9св119385 0.0 102010
21 апреля, ср
ср2101:00−10с1196100 0.0 102115
04:00−11с139741 0.0 102340
07:00−9с258956 0.0 1025173
10:00−5ссв3474100 0.0 1027712
13:00−3св3464100 0.1 10291143
16:00−2св3463100 0.1 10311099
19:00−2св236931 0.1 1033707
22:00−7св11935 0.0 103510